FW7006 Weather Reports


time (UTC)temp
F
wind
direction
speed
knots
gust
knots
rain 1hr
in
rain 24hr
in
rain mn
in
humidity
%
barometer
mb
20260507012431 46 113 1.7 2.6 0.00 0.10 0.10 88 1011.6
20260507011922 47 129 2.6 2.6 0.00 0.10 0.10 85 1011.8
20260507011420 46 101 0.9 1.7 0.00 0.10 0.10 85 1011.9
20260507010919 47 124 1.7 2.6 0.00 0.10 0.10 85 1011.9
20260507010415 47 106 0.9 1.7 0.00 0.10 0.10 84 1011.7
20260507005913 47 130 1.7 1.7 0.00 0.10 0.10 83 1011.6
20260507005409 47 94 0.9 1.7 0.00 0.10 0.10 83 1011.5
20260507004906 48 117 0.9 1.7 0.00 0.10 0.10 83 1011.5
20260507004403 48 133 1.7 1.7 0.00 0.10 0.10 84 1011.5
20260507003900 49 148 1.7 2.6 0.00 0.10 0.10 83 1011.5
20260507003355 49 104 0.9 1.7 0.00 0.10 0.10 78 1011.6
20260507002851 50 119 0.9 1.7 0.00 0.10 0.10 78 1011.4
20260507002347 50 158 0.0 1.7 0.00 0.10 0.10 78 1011.5
20260507001844 51 325 0.9 3.5 0.00 0.10 0.10 72 1011.3
20260507001341 52 113 0.0 0.9 0.00 0.10 0.10 74 1011.3
20260507000837 52 102 0.0 2.6 0.00 0.10 0.10 68 1011.2
20260507000335 53 284 0.0 1.7 0.00 0.10 0.10 70 1011.2
20260506235830 52 342 0.9 2.6 0.00 0.10 0.10 69 1011.2
20260506235327 53 314 1.7 4.3 0.00 0.10 0.10 70 1011.2
20260506234823 53 324 2.6 3.5 0.00 0.10 0.10 67 1011.4
20260506234320 55 312 2.6 2.6 0.00 0.10 0.10 64 1011.2
20260506233818 54 307 1.7 5.2 0.00 0.10 0.10 65 1011.2
20260506233314 54 323 3.5 7.8 0.00 0.10 0.10 65 1011.1
20260506232811 55 313 3.5 6.1 0.00 0.10 0.10 63 1011.3
20260506232306 55 331 4.3 8.7 0.00 0.10 0.10 60 1011.3
20260506231803 54 315 3.5 7.0 0.00 0.10 0.10 66 1011.2
20260506231301 53 331 2.6 7.8 0.00 0.10 0.10 67 1011.4
20260506230758 53 330 3.5 7.0 0.00 0.10 0.10 67 1011.4
20260506230255 53 300 1.7 6.1 0.00 0.10 0.10 71 1011.4
20260506225751 53 314 2.6 3.5 0.00 0.10 0.10 65 1011.4
20260506225248 53 311 6.1 6.1 0.00 0.10 0.10 64 1011.4
20260506224744 53 332 2.6 5.2 0.00 0.10 0.10 68 1011.6
20260506224242 53 320 2.6 4.3 0.00 0.10 0.10 69 1011.7
20260506223732 53 340 4.3 7.8 0.00 0.10 0.10 63 1011.7
20260506223228 53 268 4.3 5.2 0.00 0.10 0.10 65 1011.8
20260506222725 53 85 0.9 7.0 0.00 0.10 0.10 69 1011.9
20260506222220 53 159 1.7 8.7 0.00 0.10 0.10 67 1011.7
20260506221719 53 320 4.3 8.7 0.00 0.10 0.10 63 1011.7
20260506221217 53 274 3.5 8.7 0.00 0.10 0.10 62 1011.5
20260506220714 53 317 1.7 5.2 0.00 0.10 0.10 69 1011.6
20260506220208 53 307 2.6 7.8 0.00 0.10 0.10 62 1011.5
20260506215705 53 315 4.3 9.6 0.00 0.10 0.10 66 1011.7
20260506215201 53 316 5.2 10.4 0.00 0.10 0.10 61 1011.3
20260506214657 53 338 7.0 8.7 0.00 0.10 0.10 63 1011.4
20260506214155 53 334 7.0 9.6 0.00 0.10 0.10 64 1011.7
20260506213653 53 313 10.4 11.3 0.00 0.10 0.10 60 1011.6
20260506213150 53 306 3.5 6.1 0.00 0.10 0.10 64 1011.6
20260506212648 53 310 8.7 9.6 0.00 0.10 0.10 59 1011.4
20260506212142 53 225 7.0 10.4 0.00 0.10 0.10 61 1011.4
20260506211638 53 295 5.2 9.6 0.00 0.10 0.10 59 1011.2
20260506211135 53 316 4.3 9.6 0.00 0.10 0.10 62 1011.2
20260506210632 53 319 3.5 10.4 0.00 0.10 0.10 61 1011.2
20260506210129 53 333 5.2 10.4 0.00 0.10 0.10 60 1010.9
20260506205626 53 338 4.3 7.8 0.00 0.10 0.10 59 1011.3
20260506205126 53 295 4.3 11.3 0.00 0.10 0.10 64 1011.1
20260506204624 53 315 5.2 13.0 0.00 0.10 0.10 63 1011.3
20260506204121 53 306 7.0 12.2 0.00 0.10 0.10 59 1011.2
20260506203619 54 332 11.3 15.6 0.00 0.10 0.10 61 1011.3
20260506203115 54 222 1.7 8.7 0.00 0.10 0.10 59 1011.1
20260506202613 54 306 4.3 11.3 0.00 0.10 0.10 58 1011.4
20260506202109 54 299 7.8 7.8 0.00 0.10 0.10 62 1011.3
20260506201607 54 206 2.6 9.6 0.00 0.10 0.10 60 1011.3
20260506201103 54 304 3.5 10.4 0.00 0.10 0.10 65 1011.2
20260506200600 54 275 4.3 13.0 0.00 0.10 0.10 57 1011.1
20260506200056 55 325 3.5 11.3 0.00 0.10 0.10 60 1011.2
20260506195553 54 317 8.7 13.0 0.00 0.10 0.10 56 1011.2
20260506195049 55 283 3.5 6.1 0.00 0.10 0.10 59 1011.1
20260506194547 54 317 5.2 10.4 0.00 0.10 0.10 56 1010.9
20260506194038 54 309 3.5 7.0 0.00 0.10 0.10 60 1011.2
20260506193535 54 311 6.1 6.1 0.00 0.10 0.10 61 1011.3
20260506193032 54 334 3.5 10.4 0.00 0.10 0.10 58 1011.1
20260506192529 54 329 2.6 7.8 0.00 0.10 0.10 58 1011.1
20260506192025 54 326 6.1 11.3 0.00 0.10 0.10 62 1011.0
20260506191522 54 333 6.1 7.0 0.00 0.10 0.10 64 1011.2
20260506191018 54 188 0.9 5.2 0.00 0.10 0.10 69 1011.0
20260506190515 54 268 3.5 7.8 0.00 0.10 0.10 63 1011.1
20260506190012 54 321 7.0 10.4 0.00 0.10 0.10 65 1011.1
20260506185509 54 315 1.7 7.0 0.00 0.10 0.10 67 1011.3
20260506185006 54 237 2.6 6.1 0.00 0.10 0.10 63 1011.1
20260506184504 53 324 5.2 10.4 0.00 0.10 0.10 65 1011.2
20260506184001 54 307 4.3 7.8 0.00 0.10 0.10 61 1011.1
20260506183456 53 322 9.6 9.6 0.00 0.10 0.10 64 1011.0
20260506182953 53 326 7.8 8.7 0.00 0.10 0.10 68 1011.1
20260506182450 53 322 4.3 7.0 0.00 0.10 0.10 64 1011.3
20260506181947 53 324 2.6 9.6 0.00 0.10 0.10 63 1011.2
20260506181445 53 330 2.6 9.6 0.00 0.10 0.10 61 1011.1
20260506180941 53 334 6.1 8.7 0.00 0.10 0.10 63 1011.1
20260506180438 53 306 6.1 8.7 0.00 0.10 0.10 67 1011.1
20260506175935 53 323 6.1 10.4 0.00 0.10 0.10 62 1011.3
20260506175432 53 324 2.6 5.2 0.00 0.10 0.10 63 1011.3
20260506174928 53 321 5.2 9.6 0.00 0.10 0.10 60 1011.5
20260506174426 53 295 6.1 9.6 0.00 0.10 0.10 62 1011.3
20260506173917 54 322 4.3 6.1 0.00 0.10 0.10 64 1011.4
20260506173414 53 316 7.0 8.7 0.00 0.10 0.10 66 1011.4
20260506172911 53 301 6.1 7.8 0.00 0.10 0.10 65 1011.3
20260506172408 54 325 6.1 7.8 0.00 0.10 0.10 68 1011.0
20260506171905 54 315 7.8 10.4 0.00 0.10 0.10 70 1010.8
20260506171402 54 331 3.5 10.4 0.00 0.10 0.10 69 1011.0
20260506170900 54 320 7.0 10.4 0.00 0.10 0.10 68 1010.9
20260506170355 54 320 7.8 13.9 0.00 0.10 0.10 65 1011.1
20260506165849 54 192 0.9 7.0 0.00 0.10 0.10 63 1011.0
20260506165347 54 55 4.3 16.5 0.00 0.10 0.10 69 1011.2
20260506164843 55 19 4.3 12.2 0.00 0.10 0.10 68 1011.3
20260506164339 55 312 7.8 13.9 0.00 0.10 0.10 72 1011.4
20260506163838 55 13 5.2 13.0 0.00 0.10 0.10 70 1011.4
20260506163332 54 21 3.5 11.3 0.00 0.10 0.10 68 1011.3
20260506162827 55 330 9.6 12.2 0.00 0.10 0.10 74 1010.9
20260506162325 55 328 5.2 11.3 0.00 0.10 0.10 74 1011.3
20260506161817 55 327 8.7 8.7 0.00 0.10 0.10 81 1011.1
20260506161314 54 324 8.7 14.8 0.00 0.10 0.10 74 1010.9
20260506160811 55 324 10.4 16.5 0.00 0.10 0.10 75 1010.7
20260506160308 53 328 8.7 13.0 0.00 0.10 0.10 75 1011.0
20260506155807 54 0 5.2 12.2 0.00 0.10 0.10 73 1011.0
20260506155305 54 315 9.6 13.9 0.00 0.10 0.10 79 1011.0
20260506153416 53 334 8.7 12.2 0.00 0.10 0.10 74 1011.2
20260506152913 53 320 7.0 11.3 0.00 0.10 0.10 79 1011.2
20260506152410 52 294 7.8 11.3 0.00 0.10 0.10 74 1011.1
20260506151909 53 34 5.2 11.3 0.00 0.10 0.10 73 1011.2
20260506151405 53 326 6.1 11.3 0.00 0.10 0.10 82 1010.7
20260506150903 52 331 7.8 9.6 0.00 0.10 0.10 78 1010.8
20260506150359 52 322 5.2 11.3 0.00 0.10 0.10 78 1010.5
20260506145855 51 320 6.1 8.7 0.00 0.10 0.10 81 1010.7
20260506145351 51 310 4.3 11.3 0.00 0.10 0.10 76 1010.5
20260506144849 52 320 4.3 9.6 0.00 0.10 0.10 78 1010.3
20260506144346 50 311 4.3 8.7 0.00 0.10 0.10 78 1010.3
20260506143844 51 353 5.2 13.0 0.00 0.10 0.10 81 1010.4
20260506143341 51 295 6.1 10.4 0.00 0.10 0.10 82 1010.3
20260506142839 50 327 8.7 11.3 0.00 0.10 0.10 81 1010.5
20260506142337 51 317 7.0 11.3 0.00 0.10 0.10 80 1010.5
20260506141835 51 330 3.5 14.8 0.00 0.10 0.10 85 1010.4
20260506141333 50 317 9.6 13.0 0.00 0.10 0.10 85 1010.1
20260506140831 49 345 7.0 10.4 0.00 0.10 0.10 87 1010.3
20260506140327 49 334 5.2 9.6 0.00 0.10 0.10 85 1010.5
20260506135824 49 292 6.1 12.2 0.00 0.10 0.10 85 1010.6
20260506135321 48 303 9.6 11.3 0.00 0.10 0.10 84 1010.5
20260506134817 48 310 4.3 11.3 0.00 0.10 0.10 87 1010.3
20260506134313 48 306 10.4 11.3 0.00 0.10 0.10 85 1010.0
20260506133811 48 324 7.8 9.6 0.00 0.10 0.10 90 1010.0
20260506133307 47 295 3.5 7.8 0.00 0.10 0.10 87 1009.7
20260506132804 47 307 7.0 13.9 0.00 0.10 0.10 91 1010.1
20260506132301 47 324 6.1 7.8 0.00 0.10 0.10 89 1010.0
20260506131759 46 320 6.1 6.1 0.00 0.10 0.10 90 1009.7
20260506131255 46 339 2.6 6.1 0.00 0.10 0.10 89 1010.1
20260506130752 46 306 4.3 7.8 0.00 0.10 0.10 88 1010.0
20260506130249 46 326 5.2 7.8 0.00 0.10 0.10 91 1010.0
20260506125747 46 321 6.1 8.7 0.00 0.10 0.10 92 1009.8
20260506125245 46 316 5.2 7.0 0.00 0.10 0.10 94 1010.1
20260506124743 46 244 1.7 6.1 0.00 0.10 0.10 96 1009.8
20260506124240 45 307 1.7 5.2 0.00 0.10 0.10 96 1009.6
20260506123737 45 305 5.2 7.8 0.00 0.10 0.10 96 1009.6
20260506123237 45 319 4.3 7.0 0.00 0.10 0.10 96 1009.6
20260506122732 45 303 2.6 7.0 0.00 0.10 0.10 96 1009.3
20260506122230 45 310 2.6 6.1 0.00 0.10 0.10 96 1009.4
20260506121728 45 304 4.3 7.8 0.00 0.10 0.10 94 1009.1
20260506121225 45 304 3.5 6.1 0.00 0.10 0.10 94 1009.2
20260506120722 45 315 6.1 7.0 0.00 0.10 0.10 95 1009.0
20260506120219 44 322 3.5 6.1 0.00 0.10 0.10 95 1009.0
20260506115717 44 317 2.6 6.1 0.00 0.10 0.10 96 1008.8
20260506115215 44 317 2.6 6.1 0.00 0.10 0.10 95 1009.1
20260506114712 44 290 6.1 6.1 0.00 0.10 0.10 95 1009.0
20260506114210 44 329 1.7 4.3 0.00 0.10 0.10 95 1008.9
20260506113708 44 291 4.3 4.3 0.00 0.10 0.10 95 1008.8
20260506113205 44 334 2.6 5.2 0.00 0.10 0.10 95 1008.6
20260506112701 44 329 1.7 4.3 0.00 0.10 0.10 95 1008.3
20260506112159 44 329 3.5 5.2 0.00 0.10 0.10 96 1008.4
20260506111656 44 324 3.5 4.3 0.00 0.10 0.10 96 1008.3
20260506111154 44 312 4.3 6.1 0.00 0.10 0.10 97 1008.1
20260506110651 44 329 3.5 6.1 0.00 0.10 0.10 97 1007.9
20260506110149 44 312 4.3 6.1 0.00 0.10 0.10 97 1007.9
20260506105645 43 332 2.6 2.6 0.00 0.10 0.10 98 1007.8
20260506105142 44 47 1.7 3.5 0.00 0.10 0.10 98 1007.6
20260506104640 43 22 1.7 3.5 0.00 0.10 0.10 97 1007.8
20260506104138 43 352 0.9 2.6 0.00 0.10 0.10 98 1007.9
20260506103635 43 337 2.6 5.2 0.00 0.10 0.10 98 1007.6
20260506103131 43 40 1.7 6.1 0.00 0.10 0.10 99 1007.3
20260506102630 43 329 3.5 5.2 0.00 0.10 0.10 99 1007.6
20260506102127 43 323 4.3 6.1 0.00 0.10 0.10 99 1007.6
20260506101623 43 312 4.3 5.2 0.00 0.10 0.10 99 1007.6
20260506101119 44 314 3.5 5.2 0.00 0.10 0.10 99 1007.8
20260506100618 43 55 1.7 5.2 0.00 0.10 0.10 99 1007.6
20260506100116 43 330 4.3 6.1 0.00 0.10 0.10 99 1007.8
20260506095615 43 335 2.6 5.2 0.00 0.10 0.10 99 1007.3
20260506095111 43 326 3.5 5.2 0.00 0.10 0.10 99 1007.5
20260506094609 43 329 2.6 4.3 0.00 0.10 0.10 99 1007.4
20260506094106 43 50 2.6 3.5 0.00 0.10 0.10 99 1007.1
20260506093605 43 334 1.7 5.2 0.00 0.10 0.10 99 1007.3
20260506093101 43 319 4.3 6.1 0.00 0.10 0.10 99 1007.4
20260506092559 43 343 2.6 4.3 0.00 0.10 0.10 99 1007.2
20260506092056 43 321 5.2 7.0 0.00 0.10 0.10 99 1007.2
20260506091554 43 40 3.5 7.0 0.00 0.10 0.10 99 1007.3
20260506091052 43 321 3.5 8.7 0.00 0.10 0.10 99 1007.1
20260506090549 43 317 3.5 8.7 0.00 0.10 0.10 99 1006.9
20260506090045 43 336 1.7 6.1 0.00 0.10 0.10 99 1006.8
20260506085542 43 32 5.2 6.1 0.00 0.10 0.10 99 1007.0
20260506085038 43 50 2.6 6.1 0.00 0.10 0.10 99 1007.1
20260506084536 43 29 4.3 5.2 0.00 0.10 0.10 99 1007.2
20260506084031 42 25 3.5 7.0 0.00 0.10 0.10 99 1006.7
20260506083529 42 42 3.5 7.0 0.00 0.10 0.10 99 1006.6
20260506083026 43 32 1.7 4.3 0.02 0.10 0.10 99 1006.4
20260506082523 43 29 2.6 3.5 0.00 0.09 0.09 99 1006.4
20260506082019 43 28 2.6 5.2 0.00 0.09 0.09 99 1006.4
20260506081517 43 80 1.7 7.8 0.02 0.09 0.09 99 1006.6
20260506081014 43 349 2.6 6.1 0.02 0.09 0.09 99 1007.0
20260506080512 43 329 6.1 7.0 0.02 0.09 0.09 99 1007.5
20260506073455 43 5 0.9 7.0 0.00 0.08 0.08 99 1006.7
20260506072952 43 40 6.1 7.8 0.00 0.08 0.08 99 1006.8
20260506072449 43 39 3.5 7.0 0.02 0.08 0.08 99 1006.8
20260506071947 42 107 3.5 7.0 0.02 0.08 0.08 99 1006.6
20260506071445 42 344 1.7 7.0 0.00 0.07 0.07 99 1006.4
20260506070941 42 74 2.6 7.8 0.00 0.07 0.07 99 1006.4
20260506070439 43 60 3.5 7.8 0.00 0.07 0.07 99 1006.2
20260506062416 43 63 4.3 7.8 0.05 0.07 0.07 98 1007.4
20260506061912 43 319 6.1 9.6 0.05 0.06 0.06 98 1007.5
20260506061409 43 311 4.3 7.0 0.02 0.06 0.06 98 1007.1
20260506060907 43 330 6.1 7.8 0.02 0.06 0.06 99 1007.1
20260506060404 44 348 3.5 7.0 0.02 0.06 0.06 99 1007.2
20260506051336 43 9 2.6 9.6 0.02 0.04 0.04 99 1006.9
20260506050834 44 15 1.7 6.1 0.07 0.04 0.04 99 1007.0
20260506050331 44 69 1.7 5.2 0.09 0.04 0.04 99 1007.2
20260506044821 44 11 4.3 10.4 0.02 0.02 0.02 99 1007.0
20260506044319 44 334 2.6 6.1 0.00 0.01 0.01 99 1007.2
20260506043816 44 322 5.2 11.3 0.00 0.01 0.01 99 1007.3
20260506043313 44 335 6.1 7.8 0.02 0.01 0.01 99 1007.0
20260506042812 44 326 3.5 11.3 0.02 0.01 0.01 99 1007.1
20260506042311 44 359 4.3 10.4 0.00 0.01 0.01 99 1007.0
20260506041809 45 333 4.3 7.0 0.00 0.01 0.01 99 1007.1
20260506041305 45 39 6.1 7.8 0.02 0.01 0.01 99 1007.2
20260506040803 45 29 5.2 9.6 0.07 0.01 0.01 99 1006.7
20260506040300 45 41 4.3 7.8 0.12 0.00 0.00 99 1006.7
20260506035756 45 25 5.2 7.8 0.14 1.18 1.18 99 1006.7
20260506035253 45 36 6.1 7.8 0.12 1.16 1.16 99 1006.5
20260506034750 46 39 3.5 9.6 0.12 1.15 1.15 99 1006.9
20260506034248 46 4 3.5 11.3 0.09 1.14 1.14 99 1007.1
20260506033744 46 326 4.3 11.3 0.07 1.13 1.13 99 1007.0
20260506033242 46 312 2.6 9.6 0.02 1.13 1.13 99 1007.1
20260506032739 46 3 3.5 7.0 0.02 1.12 1.12 99 1007.0
20260506032236 46 326 3.5 7.8 0.05 1.12 1.12 99 1006.7
20260506031732 46 340 3.5 7.0 0.02 1.11 1.11 99 1006.8
20260506031229 46 339 3.5 7.0 0.02 1.11 1.11 99 1006.6
20260506030727 46 21 4.3 6.1 0.05 1.11 1.11 99 1006.8
20260506030225 46 52 2.6 6.1 0.05 1.11 1.11 99 1006.8
20260506025721 46 322 6.1 6.1 0.02 1.10 1.10 99 1007.0
20260506025218 46 79 3.5 7.0 0.02 1.10 1.10 99 1006.5
20260506024715 46 24 2.6 6.1 0.02 1.10 1.10 99 1006.9
20260506024211 46 2 2.6 7.0 0.02 1.09 1.09 99 1007.0
20260506023708 46 57 3.5 5.2 0.02 1.09 1.09 99 1006.9
20260506023205 46 45 0.0 4.3 0.02 1.09 1.09 99 1006.9
20260506022701 46 100 3.5 4.3 0.05 1.09 1.09 99 1006.8
20260506022159 46 32 1.7 4.3 0.09 1.09 1.09 99 1007.0
20260506021657 46 88 3.5 5.2 0.09 1.08 1.08 99 1006.7
20260506021154 46 44 1.7 7.0 0.12 1.07 1.07 99 1006.6
20260506020651 46 52 1.7 3.5 0.09 1.06 1.06 99 1007.0
20260506020148 46 39 2.6 4.3 0.07 1.05 1.05 99 1007.1
20260506015646 46 359 1.7 4.3 0.07 1.04 1.04 99 1007.3
20260506015143 46 41 3.5 3.5 0.07 1.03 1.03 99 1007.4
20260506014635 46 77 0.9 3.5 0.05 1.03 1.03 99 1007.1
20260506014130 46 52 2.6 5.2 0.02 1.02 1.02 99 1007.1
20260506013629 46 61 1.7 4.3 0.05 1.02 1.02 99 1007.1
20260506013125 46 73 2.6 6.1 0.09 1.01 1.01 99 1006.9